SCP
0 0 0 0 0 0 0 0 0 0 0 0 0 0 0 0 0 0 0 0 0 0 1 1 0 0 0 0 0 0 0 0 0 0 0 0 0 0 0 0 0 0 0
0 0 0 0 0 0 0 0 0 0 0 0 0 0 0 0 0 0 0 0 0 0 0 0 0 0 0 0 0 0 0 0 0 0 0 0 0 0 0 0 0 0 0
0 0 0 0 0 0 0 0 0 0 0 0 0 0 0 0 0 0 0 0 0 0 0 0 0 0 0 0 0 0 0 0 0 0 0 0 0 0 0 0 0 0 0
0 0 0 0 0 0 0 0 0 0 0 0 0 0 0 0 0 0 0 0 0 0 0 0 0 0 0 0 0 0 0 0 0 0 0 0 0 0 0 0 0 0 0
0 0 0 0 0 0 0 0 0 0 0 0 0 0 0 0 0 0 0 0 0 0 0 0 0 0 0 0 0 0 0 0 0 0 0 0 0 0 0 0 0 0 0
0 0 0 0 0 0 0 0 0 0 0 0 0 0 0 0 0 0 0 0 0 0 0 0 0 0 0 0 0 0 0 0 0 0 0 0 0 0 0 0 0 0 0
0 0 0 0 0 0 0 0 0 0 0 0 0 0 0 0 0 0 0 0 0 0 0 0 0 0 0 0 0 0 0 0 0 0 0 0 0 0 0 0 0 0 0
0 0 0 0 0 0 0 0 0 0 0 0 0 0 0 0 0 0 0 0 0 0 0 0 0 0 0 0 0 0 0 0 0 0 0 0 0 0 0 0 0 0 0
0 0 0 0 0 0 0 0 0 0 0 0 0 0 0 0 0 0 0 0 0 0 0 0 0 0 0 0 0 0 0 0 0 0 0 0 0 0 0 0 0 0 0
0 0 0 0 0 0 0 0 0 0 0 0 0 0 0 0 0 0 0 0 0 0 0 0 0 0 0 0 0 0 0 0 0 0 0 0 0 0 0 0 0 0 0
0 0 0 0 0 0 0 0 0 0 0 0 0 0 0 0 0 0 0 0 0 0 0 0 0 0 0 0 0 0 0 0 0 0 0 0 0 0 0 0 0 0 0
0 0 0 0 0 0 0 0 0 0 0 0 0 0 0 0 0 0 0 0 0 0 0 0 0 0 0 0 0 0 0 0 0 0 0 0 0 0 0 0 0 0 0
0 0 0 0 0 0 0 0 0 0 0 0 0 0 0 0 0 0 0 0 0 0 0 0 0 0 0 0 0 0 0 0 0 0 0 0 0 0 0 0 0 0 0
0 0 0 0 0 0 0 0 0 0 0 0 0 0 0 0 0 0 0 0 0 0 0 0 0 0 0 0 0 0 0 0 0 0 0 0 0 0 0 0 0 0 0
0 0 0 0 0 0 0 0 0 0 0 0 0 0 0 0 0 0 0 0 0 0 0 0 0 0 0 0 0 0 0 0 0 0 0 0 0 0 0 0 0 0 0
0 0 0 0 0 0 0 0 0 0 0 0 0 0 0 0 0 0 0 0 0 0 0 0 0 0 0 0 0 0 0 0 0 0 0 0 0 0 0 0 0 0 0
0 0 0 0 0 0 0 0 0 0 0 0 0 0 0 0 0 0 0 0 0 0 0 0 0 0 0 0 0 0 0 0 0 0 0 0 0 0 0 0 0 0 0
0 0 0 0 0 0 0 0 0 0 0 0 0 0 0 0 0 0 0 0 0 0 0 0 0 0 0 0 0 0 0 0 -0 -0 -0 0 0 0 0 0 0 0 0
0 0 0 0 0 0 0 0 0 0 0 0 0 0 0 0 0 0 0 0 0 0 0 0 0 0 0 0 0 0 0 0 0 0 0 0 0 0 0 0 0 0 0
0 0 0 0 0 0 0 0 0 0 0 0 0 0 0 0 0 0 0 0 0 0 0 0 0 0 0 0 0 0 0 0 0 0 0 0 0 0 0 0 0 0 0
0 0 0 0 0 0 0 0 0 0 0 0 0 0 0 0 0 0 0 0 0 0 0 0 0 0 0 0 0 0 0 0 0 0 0 0 0 0 0 0 0 0 0
0 0 0 0 0 0 0 0 0 0 0 0 0 0 0 0 0 0 0 0 0 0 0 0 0 0 0 0 0 0 0 0 0 0 0 0 0 0 0 0 0 0 0
0 0 0 0 0 0 0 0 0 0 0 0 0 0 0 0 0 0 0 0 0 0 0 0 0 0 0 0 0 0 0 0 0 0 0 0 0 0 0 0 0 0 0
0 0 0 0 0 0 0 0 0 0 0 0 0 0 0 0 0 0 0 0 0 0 0 0 0 0 0 0 0 0 0 0 0 0 0 0 0 0 0 0 0 0 0
0 0 0 0 0 0 0 0 0 0 0 0 0 0 0 0 0 0 0 0 0 0 0 0 0 0 0 0 0 0 0 0 0 0 0 0 0 0 0 0 0 0 0
0 0 0 0 0 0 0 0 0 0 0 0 0 0 0 0 0 0 0 0 0 0 0 0 0 0 0 0 0 0 0 0 0 0 0 0 0 0 0 0 0 0 0
Wind_Speed
6 6 6 6 5 5 5 5 5 5 6 7 8 9 10 10 9 6 5 4 3 2 2 3 3 3 3 3 3 3 3 5 6 4 3 3 4 6 6 6 7 7 8
8 7 8 7 6 6 6 6 4 5 5 6 7 8 8 9 8 7 5 2 1 2 2 2 3 3 3 3 4 5 6 6 7 7 4 4 5 5 6 7 6 7 7
9 9 9 9 8 8 8 6 4 4 4 5 5 6 7 7 7 6 5 5 5 5 5 5 4 5 5 5 7 7 7 7 6 8 5 3 5 5 6 7 8 6 6
10 10 10 10 10 9 8 6 5 4 3 3 4 4 5 5 6 7 7 7 8 8 8 7 6 6 7 8 8 8 8 8 8 8 6 5 4 4 5 5 6 6 6
11 11 11 11 9 8 8 7 6 4 3 2 2 3 3 3 4 5 7 8 8 9 9 8 8 10 10 7 8 7 8 8 7 8 7 5 4 4 4 2 4 3 5
10 11 12 11 9 8 9 7 6 6 4 2 1 1 2 2 4 7 6 7 7 8 8 7 9 11 14 15 14 11 9 9 9 7 6 7 4 4 3 3 3 4 4
10 10 11 11 10 9 8 8 8 7 5 4 3 2 1 1 3 6 7 6 6 5 5 6 7 8 9 10 14 15 13 12 10 8 9 6 4 2 4 5 5 5 4
10 10 9 10 10 8 7 9 9 7 6 6 5 5 4 3 4 6 7 6 6 6 5 5 7 6 6 9 11 11 9 8 7 7 7 5 4 3 3 4 4 4 3
10 10 9 9 10 9 8 9 8 7 7 7 6 7 6 5 7 7 7 5 6 6 5 5 6 7 8 12 12 11 10 8 10 12 11 10 10 8 4 4 4 5 4
11 10 9 8 9 9 9 9 7 8 9 9 8 7 8 7 9 9 8 5 6 5 5 6 7 8 9 10 10 11 10 6 7 8 9 10 9 10 10 6 4 4 3
11 10 9 8 8 9 8 8 8 9 9 9 9 7 7 8 10 11 10 6 7 6 5 4 4 9 11 11 9 8 9 8 7 8 7 7 7 7 7 6 5 4 4
10 10 10 9 8 8 7 8 8 10 11 10 9 7 5 6 8 10 11 9 9 7 5 4 5 11 12 12 10 11 12 9 7 7 7 6 5 5 5 6 7 6 6
11 11 10 9 8 7 7 8 7 9 10 10 10 9 7 5 6 10 11 11 11 6 5 8 10 12 12 10 12 12 8 6 6 7 6 4 3 3 3 4 5 5 6
12 11 10 8 8 7 6 5 6 7 10 11 11 11 9 7 6 7 7 8 9 9 7 9 12 12 9 9 8 7 5 5 6 6 4 3 3 4 4 3 4 4 5
12 11 9 8 8 7 6 6 6 8 10 12 13 12 13 11 11 14 12 9 8 9 9 5 5 5 5 5 5 5 5 5 5 4 4 4 4 5 4 3 3 4 4
10 9 8 7 6 6 6 7 10 12 14 16 14 14 13 14 18 17 16 16 16 17 10 7 6 6 6 6 5 4 4 4 4 4 4 4 4 5 4 3 3 4 4
10 9 7 7 7 6 6 6 7 7 9 14 15 17 15 18 20 18 17 17 17 16 8 7 7 7 6 6 5 5 4 4 3 4 5 4 4 4 4 4 3 3 3
10 11 9 7 7 6 6 6 7 6 5 6 9 14 17 19 20 19 20 15 9 7 7 9 8 7 6 6 6 5 5 5 4 4 4 4 4 4 3 3 3 3 3
8 7 7 7 7 7 6 6 7 6 6 9 8 9 12 15 16 19 19 10 12 10 8 8 8 7 7 7 6 6 6 6 5 4 4 4 4 3 3 3 3 3 2
7 12 11 7 6 6 6 6 6 6 7 9 11 11 11 10 9 11 9 8 10 10 9 8 8 7 7 7 7 7 6 6 6 5 4 4 4 3 4 4 3 3 2
6 8 12 7 6 6 6 6 6 6 7 9 11 13 17 13 13 14 12 9 10 10 9 8 8 8 7 7 7 8 9 7 6 6 5 5 4 4 3 3 3 3 2
5 6 6 6 6 6 6 6 6 6 8 11 10 11 16 12 11 12 11 11 10 8 9 9 8 7 8 9 9 9 9 8 7 7 6 6 5 5 4 4 4 4 3
5 6 6 6 6 6 6 6 5 6 8 10 11 12 12 10 11 11 11 10 9 8 8 8 8 7 7 8 9 10 10 10 9 9 8 7 6 6 5 5 6 5 5
5 6 6 6 5 5 6 5 6 7 9 10 11 12 12 11 11 11 11 9 9 8 8 8 8 11 12 10 8 9 9 9 9 9 12 10 9 8 7 7 7 8 7
4 5 5 5 5 5 5 5 6 8 9 10 11 11 11 11 10 10 9 9 10 9 10 9 8 9 13 15 12 11 11 11 10 9 10 9 10 10 10 9 8 8 8
4 5 5 5 4 4 4 5 7 9 10 10 10 10 11 11 10 10 9 9 9 9 9 8 10 11 12 12 15 14 11 11 11 11 9 9 10 10 11 9 11 10 9
Wind_Direction
290 274 266 260 253 252 255 263 276 289 302 313 319 321 321 320 315 306 293 280 247 212 188 183 183 171 167 163 142 130 115 112 113 87 56 49 61 74 68 71 72 70 68
309 284 266 258 251 248 251 257 268 285 298 311 321 327 334 337 334 333 332 341 56 85 98 122 112 118 112 111 110 109 104 102 115 110 76 57 63 67 72 68 65 69 69
320 303 281 264 249 244 243 244 253 272 293 312 326 336 342 346 351 359 14 39 51 55 58 70 80 93 91 94 98 101 102 102 99 108 96 68 65 56 67 65 61 55 60
325 314 295 275 256 245 236 230 234 249 274 304 321 336 345 359 14 27 45 55 56 54 53 55 62 78 95 103 101 103 106 103 100 102 97 80 66 50 67 70 67 53 47
326 322 309 292 268 246 232 223 220 227 239 267 309 347 353 8 35 48 61 68 68 64 56 56 70 86 86 95 109 111 112 108 103 100 95 85 68 60 61 55 77 69 56
322 321 319 310 286 254 233 218 210 210 208 203 226 14 17 43 64 66 74 77 73 75 74 69 76 81 84 83 85 87 100 113 112 103 96 92 81 72 70 67 67 61 47
311 315 322 320 306 275 242 217 209 202 193 188 189 167 143 108 99 85 79 83 81 76 77 82 88 86 90 93 82 76 73 80 97 110 104 100 94 90 96 85 74 72 60
300 305 313 321 317 302 261 229 214 197 189 187 187 177 166 171 146 118 98 85 81 72 72 91 103 94 100 105 97 85 75 67 76 88 98 95 93 95 93 98 98 89 67
289 292 301 312 316 310 289 251 220 199 189 186 184 179 173 175 169 149 124 105 93 76 65 71 99 101 112 113 106 101 91 79 75 81 82 78 74 71 96 102 88 79 57
278 280 285 293 304 303 297 276 232 206 194 183 183 184 178 177 180 165 140 125 110 97 74 62 73 99 112 118 119 118 111 106 104 88 70 58 59 55 53 65 90 92 76
271 273 277 279 286 292 297 287 241 212 190 181 179 180 179 177 178 172 155 139 133 121 104 85 77 97 101 103 106 113 126 123 107 96 85 72 63 57 54 55 57 75 80
270 271 272 274 281 298 303 299 259 213 190 180 173 172 177 176 175 178 166 150 142 129 123 113 101 100 99 100 100 112 114 109 103 95 87 75 66 59 55 59 63 65 67
272 269 269 272 271 274 289 298 276 220 192 180 177 178 177 175 178 174 164 150 139 121 127 126 114 103 95 93 99 103 103 104 103 100 94 79 62 47 61 67 57 63 65
265 265 265 267 270 268 277 285 276 236 196 182 180 179 174 170 169 160 154 143 130 120 118 112 100 91 88 88 85 81 82 93 106 106 98 85 78 76 62 58 57 50 55
263 262 262 260 262 268 272 274 272 255 213 189 184 178 174 179 183 168 158 157 154 144 132 115 109 109 104 97 91 86 89 97 96 99 105 102 91 83 71 59 64 64 61
261 260 256 255 257 260 273 284 270 254 221 203 189 177 180 175 163 165 161 155 148 145 135 139 141 143 142 138 129 113 105 107 109 116 114 111 107 102 95 82 76 75 69
250 255 256 255 255 256 263 275 284 264 209 191 183 177 170 159 158 160 152 146 148 146 141 155 158 162 159 154 149 141 137 131 128 129 125 123 119 114 110 104 97 85 72
249 256 257 251 250 250 255 263 271 251 194 175 179 174 163 157 155 147 136 129 146 164 162 166 169 171 169 166 163 153 143 141 140 139 134 134 133 129 123 118 111 101 83
247 251 251 250 248 247 251 260 261 243 201 173 157 161 161 146 139 145 148 154 167 175 173 173 175 175 177 174 170 164 160 160 157 154 151 149 148 140 133 131 124 114 98
245 255 258 251 248 249 253 259 253 233 196 174 169 160 149 140 145 162 174 168 170 175 176 176 179 180 178 176 172 169 167 169 168 170 168 163 160 157 153 153 153 147 132
241 253 263 261 246 242 249 252 246 220 187 174 169 164 165 167 167 172 180 178 177 177 177 177 177 179 178 174 173 175 177 182 183 184 180 176 171 166 164 164 167 168 161
238 245 247 249 245 242 248 247 237 202 179 171 159 157 168 168 168 173 180 184 182 178 176 175 178 180 179 178 177 179 184 189 191 191 191 187 182 177 171 175 179 180 185
238 244 249 247 240 243 252 246 219 185 173 165 157 158 172 174 170 174 180 181 176 172 171 173 177 181 184 184 183 184 189 196 197 193 192 192 190 189 186 189 191 191 199
238 245 248 246 238 244 250 231 193 175 168 161 160 164 172 175 173 174 175 174 172 171 172 177 183 188 187 186 189 195 200 199 195 196 196 197 197 197 196 198 200 203 205
245 248 247 244 244 248 242 208 178 169 163 160 161 165 171 173 171 171 170 170 170 172 177 180 186 191 194 194 194 200 199 192 193 194 196 202 205 203 202 204 203 202 202
253 253 252 247 242 239 221 187 170 162 158 158 160 163 168 171 170 169 168 168 171 174 177 183 192 195 196 200 205 203 194 191 193 194 196 202 207 210 207 210 208 206 202